Weather Roundup
Issued by NWS

Home | Current Version | Previous Version | Text Only | Print | Product List | Glossary On
Versions: 1 2 3 4 5 6 7 8 9 10 11 12 13 14 15 16 17 18 19 20 21 22 23 24 25 26 27 28 29 30 31 32 33 34 35 36 37 38 39 40 41 42 43 44 45 46 47 48 49 50
000
NZUS93 KARX 311859
HRRWXR

CURRENT HOURLY OBSERVATIONS ACROSS
MUCH OF THE UPPER MISSISSIPPI VALLEY
NATIONAL WEATHER SERVICE LA CROSSE WI
200 PM CDT THU JUL 31 2014


...SOUTHEAST MINNESOTA...


CITY           SKY/WX    TMP DP  RH WIND       PRES   REMARKS
ROCHESTER      SUNNY     79  57  46 W10       30.07S
ROCHESTER/MAYO FAIR      76  51  40 W13G18    30.05F
WINONA         PTSUNNY   79  55  44 NW8       30.03S
AUSTIN         MOSUNNY   79  52  38 CALM      30.06F
ALBERT LEA     MOSUNNY   79  50  36 SW5       30.06F
DODGE CENTER   MOSUNNY   79  55  44 W7        30.06S
PRESTON        MOSUNNY   77  59  54 W5        30.07S
OWATONNA       SUNNY     79  54  41 W7        30.05F
FARIBAULT      MOSUNNY   82  48  30 W6        30.05S
$$

...ELSEWHERE IN MINNESOTA...


CITY           SKY/WX    TMP DP  RH WIND       PRES   REMARKS
MINNEAPOLIS    PTSUNNY   81  52  36 W10       30.02S
INTNL FALLS    SUNNY     77  55  46 N7        29.99S
DULUTH         MOSUNNY   78  54  43 NW8       29.98F
RED WING       SUNNY     82  54  36 W10       30.01S
REDWOOD FALLS  MOSUNNY   79  52  38 NW6       30.05F
MANKATO        MOSUNNY   79  54  41 W7        30.05F
WORTHINGTON    MOSUNNY   77  57  50 CALM      30.09S
FAIRMONT       MOSUNNY   81  52  36 W5        30.07S
$$

...SOUTHWEST WISCONSIN...


CITY           SKY/WX    TMP DP  RH WIND       PRES   REMARKS
LA CROSSE      MOSUNNY   82  58  43 W10       30.02S
PRAIRIE DU CHI SUNNY     81  51  35 W10       30.03F
BOSCOBEL       SUNNY     84  55  36 W8        30.04S
LONE ROCK      NOT AVBL
PLATTEVILLE    SUNNY     79  57  47 W9G16     30.07S
FORT MC COY    MOSUNNY   79  54  42 W13G18    30.03S
VIROQUA        FAIR      77  59  54 NW8       30.05F
WIS DELLS      SUNNY     81  53  38 W10G17    30.02S
$$

...ELSEWHERE IN WISCONSIN...


CITY           SKY/WX    TMP DP  RH WIND       PRES   REMARKS
MILWAUKEE      PTSUNNY   80  56  43 W10       30.00F
MADISON        PTSUNNY   82  58  43 W8        30.02F
GREEN BAY      MOSUNNY   78  61  55 W6        29.96F
EAU CLAIRE     NOT AVBL
BLACK RVR FLS  FAIR      80  55  42 W13       30.01S
MEDFORD        PTSUNNY   74  62  64 W7G16     30.00F
WAUSAU         MOSUNNY   79  56  45 NW13      29.97F
WIS RAPIDS     MOSUNNY   80  58  46 W10G20    30.01S
MARSHFIELD     MOSUNNY   79  60  52 W13       30.00S
RICE LAKE      PTSUNNY   77  60  56 W9        30.01F
$$

...NORTHEAST IOWA...


CITY           SKY/WX    TMP DP  RH WIND       PRES   REMARKS
WATERLOO       MOSUNNY   80  56  43 W9        30.05F
DUBUQUE        MOSUNNY   78  57  48 W13       30.06F
DECORAH        MOSUNNY   77  59  53 VRB3      30.05F
MASON CITY     PTSUNNY   76  56  49 W12       30.08F
CHARLES CITY   MOSUNNY   79  57  47 W7        30.07F
OELWEIN        MOSUNNY   75  57  53 NW9G15    30.08S
$$

...ELSEWHERE IN IOWA...


CITY           SKY/WX    TMP DP  RH WIND       PRES   REMARKS
DES MOINES     MOSUNNY   82  55  39 W6        30.07F
IOWA CITY      MOSUNNY   79  60  52 VRB6      30.08F
FORT DODGE     SUNNY     79  55  44 CALM      30.09S
MARSHALLTOWN   MOSUNNY   80  59  48 W6        30.07F
CEDAR RAPIDS   MOSUNNY   79  59  50 VRB6      30.06F
$$

...NORTHERN ILLINOIS...


CITY           SKY/WX    TMP DP  RH WIND       PRES   REMARKS
CHICAGO-OHARE  MOSUNNY   84  54  35 W14       30.03S
DUPAGE         MOSUNNY   82  57  42 W13       30.04S
CHICAGO-MIDWAY MOSUNNY   84  58  40 VRB7      30.03F
MOLINE         MOSUNNY   82  60  47 W10G17    30.06F
ROCKFORD       MOSUNNY   82  56  40 W15       30.05F
STERLING       MOSUNNY   82  63  51 W12G20    30.06S
PEORIA         MOSUNNY   84  59  42 SW7       30.08S
$$

NOTE: "FAIR" INDICATES FEW OR NO CLOUDS BELOW 12,000 FEET WITH NO
SIGNIFICANT WEATHER AND/OR OBSTRUCTIONS TO VISIBILITY. WIND
SPEEDS ARE IN MILES-PER-HOUR.



USA.gov is the U.S. government's official web portal to all federal, state and local government web resources and services.